EW3230 Weather Reports


time (UTC)temp
C
wind
direction
speed
KPH
gust
KPH
rain 1hr
cm
rain 24hr
cm
rain mn
cm
humidity
%
barometer
mb
20260505041150 11 207 0.0 3.2 0.00 0.00 0.00 81 1012.6
20260505040147 11 204 0.0 1.6 0.00 0.00 0.00 81 1012.6
20260505035149 11 212 0.0 3.2 0.00 0.00 0.00 81 1012.7
20260505033648 11 208 0.0 1.6 0.00 0.00 0.00 81 1012.7
20260505032145 11 209 0.0 1.6 0.00 0.00 0.00 81 1012.8
20260505031142 11 165 0.0 1.6 0.00 0.00 0.00 81 1012.9
20260505030140 11 148 0.0 3.2 0.00 0.00 0.00 81 1012.9
20260505025642 11 172 0.0 3.2 0.00 0.00 0.00 81 1012.9
20260505024141 11 145 0.0 1.6 0.00 0.00 0.00 81 1012.8
20260505023141 11 112 0.0 1.6 0.00 0.00 0.00 80 1013.0
20260505022144 11 221 0.0 1.6 0.00 0.00 0.00 80 1013.0
20260505021142 11 198 0.0 4.8 0.00 0.00 0.00 80 1012.9
20260505020142 11 215 0.0 4.8 0.00 0.00 0.00 80 1012.9
20260505015138 11 201 0.0 4.8 0.00 0.00 0.00 80 1012.8
20260505014138 11 215 0.0 4.8 0.00 0.00 0.00 79 1012.7
20260505013139 11 205 0.0 3.2 0.00 0.00 0.00 79 1012.5
20260505012137 11 221 0.0 3.2 0.00 0.00 0.00 78 1012.5
20260505011640 12 124 0.0 4.8 0.00 0.00 0.00 77 1012.2
20260505010151 12 148 1.6 9.7 0.00 0.00 0.00 76 1012.1
20260505005140 12 246 1.6 4.8 0.00 0.00 0.00 75 1011.9
20260505004142 12 203 1.6 6.4 0.00 0.00 0.00 74 1011.8
20260505003138 12 212 1.6 6.4 0.00 0.00 0.00 73 1011.5
20260505002137 12 197 1.6 6.4 0.00 0.00 0.00 72 1011.4
20260505001138 12 247 1.6 9.7 0.00 0.00 0.00 72 1011.2
20260505000138 13 195 1.6 4.8 0.00 0.00 0.00 71 1011.1
20260504235137 13 141 1.6 8.0 0.00 0.00 0.00 71 1011.2
20260504234137 13 210 3.2 8.0 0.00 0.00 0.00 69 1010.9
20260504233638 13 174 1.6 9.7 0.00 0.00 0.00 68 1010.8
20260504232138 13 190 3.2 16.1 0.00 0.00 0.00 67 1010.8
20260504231136 13 229 3.2 12.9 0.00 0.00 0.00 65 1010.7
20260504230135 14 217 3.2 9.7 0.00 0.00 0.00 64 1010.5
20260504225137 14 195 3.2 12.9 0.00 0.00 0.00 63 1010.4
20260504224136 15 235 4.8 11.3 0.00 0.00 0.00 61 1010.3
20260504223136 15 174 3.2 11.3 0.00 0.00 0.00 59 1010.3
20260504222135 16 155 3.2 11.3 0.00 0.00 0.00 56 1010.3
20260504221134 16 203 4.8 12.9 0.00 0.00 0.00 55 1010.2
20260504220133 16 215 3.2 12.9 0.00 0.00 0.00 54 1010.2
20260504215134 16 214 4.8 12.9 0.00 0.00 0.00 54 1010.2
20260504214137 17 186 3.2 12.9 0.00 0.00 0.00 52 1010.3
20260504213133 17 212 3.2 12.9 0.00 0.00 0.00 52 1010.2
20260504212134 17 134 6.4 12.9 0.00 0.00 0.00 51 1010.1
20260504211141 17 229 4.8 16.1 0.00 0.00 0.00 51 1010.1
20260504210128 18 224 6.4 12.9 0.00 0.00 0.00 49 1010.0
20260504205630 18 208 4.8 14.5 0.00 0.00 0.00 48 1010.0
20260504204129 18 173 6.4 19.3 0.00 0.00 0.00 47 1009.8
20260504203142 19 221 4.8 17.7 0.00 0.00 0.00 44 1009.8
20260504202130 18 203 6.4 17.7 0.00 0.00 0.00 43 1009.8
20260504201128 19 229 4.8 14.5 0.00 0.00 0.00 41 1009.8
20260504200129 19 217 8.0 22.5 0.00 0.00 0.00 40 1009.7
20260504195130 19 192 6.4 17.7 0.00 0.00 0.00 38 1009.8
20260504194131 19 172 6.4 17.7 0.00 0.00 0.00 39 1010.0
20260504193132 19 186 8.0 17.7 0.00 0.00 0.00 37 1009.9
20260504192131 19 248 8.0 20.9 0.00 0.00 0.00 37 1009.8
20260504191129 19 163 9.7 19.3 0.00 0.00 0.00 37 1009.8
20260504190129 19 267 8.0 27.4 0.00 0.00 0.00 37 1009.9
20260504185129 19 167 8.0 24.1 0.00 0.00 0.00 38 1010.2
20260504184630 20 253 6.4 19.3 0.00 0.00 0.00 39 1010.1
20260504183129 20 256 4.8 22.5 0.00 0.00 0.00 41 1010.3
20260504182128 20 267 6.4 16.1 0.00 0.00 0.00 40 1009.9
20260504181128 20 225 6.4 17.7 0.00 0.00 0.00 40 1010.0
20260504180127 20 271 6.4 17.7 0.00 0.00 0.00 41 1009.9
20260504175130 20 204 6.4 19.3 0.00 0.00 0.00 39 1009.7
20260504174126 20 233 6.4 16.1 0.00 0.00 0.00 38 1009.8
20260504173126 20 204 6.4 17.7 0.00 0.00 0.00 37 1009.8
20260504172628 20 237 6.4 20.9 0.00 0.00 0.00 37 1010.0
20260504171130 20 221 6.4 12.9 0.00 0.00 0.00 36 1010.0
20260504170126 20 242 4.8 17.7 0.00 0.00 0.00 37 1010.0
20260504160122 20 128 3.2 11.3 0.00 0.00 0.00 39 1010.7
20260504150619 20 248 3.2 12.9 0.00 0.00 0.00 40 1011.0
20260504141119 18 200 3.2 14.5 0.00 0.00 0.00 41 1011.6
20260504140117 18 161 3.2 8.0 0.00 0.00 0.00 43 1011.7
20260504130121 15 239 1.6 9.7 0.00 0.00 0.00 50 1012.1
20260504130115 16 203 0.0 3.2 0.00 0.00 0.00 49 1012.0
20260504120124 12 283 0.0 6.4 0.00 0.00 0.00 63 1012.2
20260504090107 6 280 0.0 0.0 0.00 0.00 0.00 79 1011.9
20260504081552 6 280 0.0 0.0 0.00 0.00 0.00 79 1011.8
20260504080604 5 280 0.0 0.0 0.00 0.03 0.00 80 1011.7
20260504045040 4 278 0.0 1.6 0.00 0.10 0.00 75 1011.3
20260504044039 3 281 0.0 0.0 0.00 0.10 0.00 76 1011.5
20260504043540 3 287 0.0 0.0 0.00 0.10 0.00 78 1011.4
20260504042045 3 288 0.0 0.0 0.00 0.10 0.00 78 1011.4
20260504042039 3 288 0.0 0.0 0.00 0.10 0.00 77 1011.4